Bishopton, United Kingdom

7:15 PM GMT on February 22, 2017 (GMT +0000)
Glasgow

Weather History for EGPF - January, 2013

Change the Weather History Date:

Tuesday, January 22, 2013

  Actual Average Record
Temperature  
Mean Temperature 34 °F -  
Max Temperature 37 °F 44 °F 51 °F (1998)
Min Temperature 30 °F 32 °F 24 °F (2005)
Degree Days  
Heating Degree Days 32    
Moisture  
Dew Point 30 °F    
Average Humidity 87    
Maximum Humidity 93    
Minimum Humidity 75    
Precipitation  
Precipitation 0.00 in - - ()
Sea Level Pressure  
Sea Level Pressure 29.66 in    
Wind  
Wind Speed 10 mph ()    
Max Wind Speed 18 mph    
Max Gust Speed -    
Visibility 5.5 miles    
Events Rain , Snow    
Averages and records for this station are not official NWS values.
T = Trace of Precipitation, MM = Missing Value Source: Averaged Metar Reports

Daily Weather History Graph

Daily Weather History Graph

Search for Another Location

Airport or City:

Trip Planner

Search our weather history database for the weather conditions in past years. The results will help you decide how hot, cold, wet, or windy it might be!

Date:

Astronomy

Jan. 22, 2013 Rise Set
Actual Time 8:28 AM GMT 4:30 PM GMT
Civil Twilight 7:45 AM GMT 5:13 PM GMT
Nautical Twilight 6:59 AM GMT 5:59 PM GMT
Astronomical Twilight 6:15 AM GMT 6:43 PM GMT
Moon 12:34 PM GMT 4:45 AM GMT
Length of Visible Light 9h 27m
Length of Day
8h 01m
Waxing Gibbous, 81% of the Moon is Illuminated
Jan 22
Waxing Gibbous
Jan 27
Full
Feb 3
Last Quarter
Feb 10
New
Feb 17
First Quarter

Hourly Weather History & Observations

Time (GMT) Temp. Windchill Dew Point Humidity Pressure Visibility Wind Dir Wind Speed Gust Speed Precip Events Conditions
12:20 AM 35.6 °F 26.2 °F 30.2 °F 81% 29.47 in 6.2 mi ENE 15.0 mph - N/A Snow Light Snow
12:50 AM 35.6 °F 25.5 °F 30.2 °F 81% 29.47 in 6.2 mi ENE 17.3 mph - N/A   Mostly Cloudy
1:20 AM 35.6 °F 25.2 °F 30.2 °F 81% 29.47 in 6.2 mi ENE 18.4 mph - N/A   Mostly Cloudy
1:50 AM 35.6 °F 25.9 °F 32.0 °F 87% 29.47 in 6.2 mi ENE 16.1 mph - N/A Rain Light Rain
2:20 AM 35.6 °F 25.9 °F 32.0 °F 87% 29.50 in 6.2 mi East 16.1 mph - N/A Rain Light Rain
2:50 AM 35.6 °F 26.2 °F 32.0 °F 87% 29.50 in 6.2 mi East 15.0 mph - N/A Rain Light Rain
3:20 AM 35.6 °F 26.2 °F 32.0 °F 87% 29.50 in 5.0 mi East 15.0 mph - N/A Snow Light Snow
3:50 AM 33.8 °F 26.4 °F 32.0 °F 93% 29.50 in 1.3 mi SE 9.2 mph - N/A Snow Snow
4:20 AM 33.8 °F 23.9 °F 32.0 °F 93% 29.53 in 4.3 mi East 15.0 mph - N/A Snow Light Snow
4:50 AM 33.8 °F 24.8 °F 32.0 °F 93% 29.53 in 3.7 mi East 12.7 mph - N/A Snow Light Snow
5:20 AM 33.8 °F 25.8 °F 32.0 °F 93% 29.53 in 3.7 mi East 10.4 mph - N/A Snow Light Snow
5:50 AM 33.8 °F 25.8 °F 32.0 °F 93% 29.53 in 3.1 mi East 10.4 mph - N/A Snow Light Snow
6:20 AM 33.8 °F 27.0 °F 32.0 °F 93% 29.56 in 5.6 mi East 8.1 mph - N/A Snow Light Snow
6:50 AM 33.8 °F 27.7 °F 32.0 °F 93% 29.56 in 6.2 mi East 6.9 mph - N/A Snow Light Snow
7:20 AM 33.8 °F 27.7 °F 32.0 °F 93% 29.56 in 6.2 mi East 6.9 mph - N/A Snow Light Snow
7:50 AM 33.8 °F 25.3 °F 30.2 °F 87% 29.56 in 6.2 mi East 11.5 mph - N/A   Mostly Cloudy
8:20 AM 33.8 °F 26.4 °F 30.2 °F 87% 29.59 in 6.2 mi ESE 9.2 mph - N/A   Mostly Cloudy
8:50 AM 33.8 °F 25.3 °F 28.4 °F 81% 29.59 in 6.2 mi East 11.5 mph - N/A   Mostly Cloudy
9:20 AM 33.8 °F 27.7 °F 28.4 °F 81% 29.62 in 6.2 mi East 6.9 mph - N/A   Scattered Clouds
9:50 AM 33.8 °F 27.7 °F 28.4 °F 81% 29.62 in 6.2 mi East 6.9 mph - N/A   Partly Cloudy
10:20 AM 33.8 °F 26.4 °F 30.2 °F 87% 29.62 in 6.2 mi East 9.2 mph - N/A   Scattered Clouds
10:50 AM 33.8 °F 26.4 °F 30.2 °F 87% 29.65 in 6.2 mi East 9.2 mph - N/A   Scattered Clouds
11:20 AM 33.8 °F 26.4 °F 30.2 °F 87% 29.65 in 6.2 mi ENE 9.2 mph - N/A   Scattered Clouds
11:50 AM 33.8 °F 27.7 °F 30.2 °F 87% 29.68 in 6.2 mi ENE 6.9 mph - N/A   Partly Cloudy
12:20 PM 35.6 °F 29.2 °F 30.2 °F 81% 29.68 in 6.2 mi ENE 8.1 mph - N/A   Scattered Clouds
12:50 PM 35.6 °F 29.2 °F 30.2 °F 81% 29.68 in 6.2 mi East 8.1 mph - N/A   Scattered Clouds
1:20 PM 35.6 °F 28.6 °F 30.2 °F 81% 29.68 in 6.2 mi East 9.2 mph - N/A   Scattered Clouds
1:50 PM 37.4 °F 31.4 °F 30.2 °F 75% 29.68 in 6.2 mi East 8.1 mph - N/A   Scattered Clouds
2:20 PM 35.6 °F 28.6 °F 30.2 °F 81% 29.71 in 6.2 mi East 9.2 mph - N/A   Scattered Clouds
2:50 PM 35.6 °F 28.0 °F 30.2 °F 81% 29.71 in 6.2 mi ENE 10.4 mph - N/A   Scattered Clouds
3:20 PM 35.6 °F 29.2 °F 30.2 °F 81% 29.71 in 6.2 mi ENE 8.1 mph - N/A   Scattered Clouds
3:50 PM 35.6 °F 29.2 °F 30.2 °F 81% 29.71 in 6.2 mi ENE 8.1 mph - N/A   Scattered Clouds
4:20 PM 35.6 °F 30.7 °F 30.2 °F 81% 29.74 in - ENE 5.8 mph - N/A   Clear
4:50 PM 33.8 °F 29.6 °F 28.4 °F 81% 29.74 in - ENE 4.6 mph - N/A   Clear
5:20 PM 33.8 °F 29.6 °F 28.4 °F 81% 29.74 in - ENE 4.6 mph - N/A   Clear
5:50 PM 32.0 °F 25.6 °F 28.4 °F 87% 29.77 in - ENE 6.9 mph - N/A   Clear
6:20 PM 33.8 °F 27.0 °F 28.4 °F 81% 29.77 in - ENE 8.1 mph - N/A   Clear
6:50 PM 33.8 °F 28.6 °F 30.2 °F 87% 29.77 in - ENE 5.8 mph - N/A   Clear
7:20 PM 33.8 °F 28.6 °F 30.2 °F 87% 29.77 in - ENE 5.8 mph - N/A   Clear
7:50 PM 32.0 °F 26.4 °F 28.4 °F 87% 29.80 in - East 5.8 mph - N/A   Clear
8:20 PM 32.0 °F 27.5 °F 28.4 °F 87% 29.80 in 5.6 mi East 4.6 mph - N/A   Unknown
8:50 PM 32.0 °F 27.5 °F 30.2 °F 93% 29.80 in 5.6 mi East 4.6 mph - N/A   Mostly Cloudy
9:20 PM 33.8 °F 27.7 °F 32.0 °F 93% 29.80 in 5.6 mi East 6.9 mph - N/A   Mostly Cloudy
9:50 PM 33.8 °F 30.8 °F 32.0 °F 93% 29.83 in 5.0 mi ENE 3.5 mph - N/A   Mostly Cloudy
10:20 PM 30.2 °F - 28.4 °F 93% 29.83 in 3.7 mi South 2.3 mph - N/A   Mostly Cloudy
10:50 PM 32.0 °F 26.4 °F 30.2 °F 93% 29.83 in 3.7 mi East 5.8 mph - N/A   Mostly Cloudy
11:20 PM 32.0 °F - 30.2 °F 93% 29.83 in 3.7 mi East 2.3 mph - N/A   Mostly Cloudy
11:50 PM 30.2 °F - 28.4 °F 93% 29.83 in 3.7 mi Calm Calm - N/A   Mostly Cloudy